Regional Weather Roundup
Issued by NWS

Home | Current Version | Previous Version | Text Only | Print | Product List | Glossary On
Versions: 1 2 3 4 5 6 7 8 9 10 11 12 13 14 15 16 17 18 19 20 21 22 23 24 25 26 27 28 29 30 31 32 33 34 35 36 37 38 39 40 41 42 43 44 45 46 47 48 49 50
000
ASHW40 PHFO 281030
RWRHI

WEATHER ROUNDUP FOR HAWAII
NATIONAL WEATHER SERVICE HONOLULU HI
1200 AM HST TUE JUL 28 2015

THIS IS AN AUTOMATED REPORT THAT HAS NOT BEEN QUALITY CONTROLLED.

NOTE..."FAIR" INDICATES FEW OR NO CLOUDS BELOW 12,000 FEET WITH NO
SIGNIFICANT WEATHER AND/OR OBSTRUCTIONS TO VISIBILITY.

* - THESE SITES REPORT LIMITED FIELDS

HIZ001>004-281100-
KAUAI-NIIHAU-

CITY           SKY/WX    TMP DP  RH WIND       PRES   REMARKS
LIHUE APT      PTCLDY    79  72  79 E10       29.99F
PORT ALLEN*    NOT AVBL
POIPU*           N/A     79 N/A N/A NE7G13      N/A
PRINCEVILLE*     N/A     73 N/A N/A MISG        N/A
KOKOLE POINT*  NOT AVBL
MOLOAA DAIRY*  NOT AVBL
WAIMEA HTS*    NOT AVBL
PUU OPAE*      NOT AVBL
PUU LUA*       NOT AVBL
MAKAHA RIDGE*    N/A     70  64  83 CALM        N/A
$$

HIZ005>011-281100-
OAHU-

CITY           SKY/WX    TMP DP  RH WIND       PRES   REMARKS
HONOLULU       MOCLDY    80  71  74 NE8       29.96F
KALAELOA       PTCLDY    76  68  76 CALM      29.98F
KANEOHE MCB    CLOUDY    79  73  82 E8        29.95F
WHEELER FIELD  FAIR      74  69  83 NW3       29.98S
BELLOWS*         N/A    N/A N/A N/A E16         N/A
KAHUKU*          N/A    N/A N/A N/A NE8G14      N/A
WHEELER*       NOT AVBL
WAIANAE HARBOR NOT AVBL
DILLINGHAM*      N/A     72  66  83 MISG        N/A
KAHUKU TRN*      N/A     75  70  83 E8G14       N/A
KAWAILOA*        N/A     73  68  83 E10G16      N/A
KII*             N/A     81  75  83 E12G17      N/A
MAKUA RANGE*     N/A     75  66  73 E3          N/A
OAHU FOREST NW NOT AVBL
SCHOFIELD BRK*   N/A     70  66  88 MISG        N/A
SCHOFIELD S*   NOT AVBL
WAIANAE VLY*   NOT AVBL
KUAOKALA*      NOT AVBL
HONOULIUULI*   NOT AVBL
MOKUOLOE IS*   NOT AVBL
PALEHUA*       NOT AVBL
WAIAWA PHB*    NOT AVBL
$$

HIZ012>013-281100-
MOLOKAI-

CITY           SKY/WX    TMP DP  RH WIND       PRES   REMARKS
MOLOKAI AIRPT  CLEAR     76  68  76 NE5       29.97F
KALAUPAPA      NOT AVBL
MAKAPULAPAI*   NOT AVBL
MOLOKAI 1*     NOT AVBL
PUU ALII*        N/A     63  63 100 CALM        N/A
$$

HIZ016-281100-
KAHOOLAWE-

CITY           SKY/WX    TMP DP  RH WIND       PRES   REMARKS
KAHOOLAWE*     NOT AVBL
HAKIOAWA*        N/A     75  69  81 MISG      30.39S
HONOKANAIA*      N/A     79  69  72 NE13G29   29.97F
KANELOA*         N/A     77  72  83 E16G29    30.04S
KEALIALALO*      N/A     75  68  78 E13G31    29.96F
LUA MAKIKA*    NOT AVBL
$$

HIZ014>015-281100-
LANAI-

CITY           SKY/WX    TMP DP  RH WIND       PRES   REMARKS
LANAI CITY     FAIR      72  70  94 NE5       30.02F
LANAI 1*       NOT AVBL
$$

HIZ017>028-281100-
MAUI-

CITY           SKY/WX    TMP DP  RH WIND       PRES   REMARKS
KAHULUI        CLEAR     76  69  79 SE12      29.96F
KAPALUA-W MAUI NOT AVBL
HANA AIRPORT   MOCLDY    75  73  94 E3        30.00F
HANA*            N/A     75 N/A N/A SE3         N/A
HALEAKALA SUMM   N/A     46  23  39 S2G15       N/A
MAALAEA BAY*   NOT AVBL
HALEAKALA*     NOT AVBL
KAUPO GAP*     NOT AVBL
KULA 1*          N/A     53  44  72 E7          N/A
$$

HIZ023>026-281100-
BIG ISLAND OF HAWAII COAST AND LOWER SLOPES-

CITY           SKY/WX    TMP DP  RH WIND       PRES   REMARKS
KAILUA KONA    PTCLDY    82  73  74 CALM      29.93F
HILO           PTCLDY    74  72  93 SW6       30.00S
HONOKAA*       NOT AVBL
KAWAIHAE MWT*    N/A     81 N/A N/A SE2         N/A
KAWAIHAE*        N/A     81 N/A N/A E2          N/A
SOUTH POINT*     N/A     73 N/A N/A NE14G20     N/A
UPOLU AIRPORT*   N/A    N/A N/A N/A E18G28      N/A
KAMUELA*       CLOUDY    64  64 100 CALM      30.07S
HAKALAU*         N/A     50  44  81 SW6         N/A
KALOKO-HONOKO*   N/A     81  72  74 CALM      29.93S
PALI 2*          N/A     66  61  82 N9          N/A
KEALAKOMO*       N/A     73  66  78 NE8         N/A
KAUPULEHU*     NOT AVBL
KAPAPALA*        N/A     65  64  95 N3          N/A
LOWER KAHUKU*    N/A     64  61  88 N3G12       N/A
PUHE CS*         N/A     79  70  73 E3          N/A
PUHO CS*         N/A     75  69  80 E2          N/A
PTA KEAMUKU*     N/A     64  61  88 CALM        N/A
WAIKOLOA*      NOT AVBL
$$

HIZ027>028-281100-
BIG ISLAND OF HAWAII INTERIOR AND SUMMMITS-

CITY           SKY/WX    TMP DP  RH WIND       PRES   REMARKS
BRADSHAW FIELD CLOUDY    51  43  74 SE3       30.32F
MK VISITOR CEN   N/A      0   0 100 MISG        N/A
MAUNA KEA*       N/A     37   9  30 S7          N/A
MAUNA LOA*       N/A     45  36  70 MISG        N/A
MAUNA LOA 1*   NOT AVBL
PTA KIPUKA*      N/A     72  70  94 E3          N/A
PTA RANGE 17*    N/A     59  45  58 SE10G18     N/A
PTA WEST*      NOT AVBL
NENE CABIN*      N/A     52  37  58 NE6G12      N/A
AHUMOA*        NOT AVBL
PTA PORTABLE*  NOT AVBL
PUU MALI*        N/A     55  50  82 S5G12       N/A
$$

HIC003-281100-
NORTHWEST ISLANDS-

CITY           SKY/WX    TMP DP  RH WIND       PRES   REMARKS
MIDWAY ISLAND  CLEAR     79  72  78 E9        30.09S
MIDWAY NOS*    NOT AVBL
FRENCH FRIGATE NOT AVBL
$$

PHZ110>124-180-281100-
BUOY REPORTS

STATION/POSITION TIME  TEMP    WIND        PRES    WAVE   SWELL
                       AIR SEA DIR/SP/G            HT/PER HT/DIR
                 (UTC) (F)     (DEG/KT/KT) (MB)    (FT/S) (FT/D)
BUOY 51001       NOT AVBL
BUOY 51101       1000   81 81  120/ 14/ 16 1014.4F   6/15   5/180
BUOY 51100       NOT AVBL
BUOY 51002       1000   81 82   80/ 19/ 23 1012.2F   8/14   5/160
BUOY 51003       1000   81 83  100/  8/ 10 1013.7F   5/14   5
BUOY 51004       0919   81 81   90/ 16/ 19 1014.0F   8/ 7   5/170
BARBERS PT BUOY  NOT AVBL
WAIMEA BAY BUOY  1000      81                N/A     3/ 8   2/260
KAILUA BAY BUOY  1000      81                N/A     5/ 8   2/110
LANAI BUOY       NOT AVBL
BARBERS PT 2     1000      82                N/A     5/14   3/200
PAUWELA MAUI     1000      80                N/A     5/ 8   2/100
HILO             NOT AVBL
KANEOHE BAY BUOY 1000      80                N/A     4/ 7
HANALEI KAUAI    1000      81                N/A     4/ 8   2/250
KAHULUI HARBOR   1000   78 82   80/  4/  8 1013.9F
HONOLULU HARBOR  1000   81 82   50/  2/  7 1014.6F
KILO NALU        NOT AVBL
HILO HARBOR      1000   74 77  220/  5/  7 1015.3F
MOKUOLOE         1000   79 85   90/  7/ 10 1015.1S
NAWILIWILI       1000   80 82   60/  7/ 10 1014.9F
WHOTS BUOY       NOT AVBL
BUOY 51028       NOT AVBL
$$

......................KEY........................................
  SKY/WX - SKY CONDITIONS/PRESENT WEATHER
  TMP    - TEMPERATURE IN FAHRENHEIT
  DWPT   - DEWPOINT IN FAHRENHEIT
  RH     - RELATIVE HUMIDITY IN PERCENT
  WIND   - DIRECTION AND SPEED /MPH FOR ISLANDS...KTS FOR BUOYS/
  PRES   - MEAN SEA LEVEL PRESSURE IN INCHES OF HG
  VSB    - VISIBILITY IN MILES
  HX     - HEAT INDEX
  WCI    - WIND CHILL INDEX
  VRB    - VARIABLE WIND DIRECTION
  N/A    - NOT AVAILABLE



USA.gov is the U.S. government's official web portal to all federal, state and local government web resources and services.